This is the latest recevied weather packets stored in our database for station/object K5VP. If no packets are shown the sender has not sent any weather packets the latest 10 day(s).
| Time | Temp. | Humidity | Pressure | Rain* | Wind** | Luminosity | Snow |
|---|---|---|---|---|---|---|---|
| 1777437183 | 17.22° C | 95% | 1012.6 hPa | 2.79 mm | - | - | - |
| 1777436792 | 17.22° C | 95% | 1011.4 hPa | 4.06 mm | - | - | - |
| 1777436416 | 17.22° C | 95% | 1012 hPa | 4.83 mm | - | - | - |
| 1777436021 | 17.22° C | 95% | 1013.5 hPa | 5.84 mm | - | - | - |
| 1777435626 | 17.22° C | 95% | 1013.9 hPa | 5.84 mm | - | - | - |
| 1777435244 | 17.22° C | 95% | 1014.5 hPa | 4.06 mm | - | - | - |
| 1777434867 | 17.22° C | 95% | 1014.5 hPa | 3.56 mm | - | - | - |
| 1777434487 | 17.22° C | 95% | 1014.5 hPa | 3.05 mm | - | - | - |
| 1777434097 | 17.22° C | 95% | 1014.7 hPa | 6.6 mm | - | - | - |
| 1777433710 | 17.22° C | 95% | 1015.2 hPa | 3.56 mm | - | - | - |
| 1777433334 | 17.78° C | 95% | 1015.2 hPa | 3.56 mm | - | - | - |
| 1777432943 | 17.78° C | 94% | 1015.2 hPa | 4.06 mm | - | - | - |
| 1777432566 | 17.78° C | 94% | 1015.5 hPa | 6.6 mm | - | - | - |
| 1777432193 | 17.78° C | 94% | 1015.3 hPa | 21.08 mm | - | - | - |
| 1777431801 | 17.78° C | 94% | 1015.2 hPa | 2.03 mm | - | - | - |
| 1777431432 | 17.78° C | 94% | 1014.6 hPa | 0 mm | - | - | - |
| 1777431040 | 17.78° C | 94% | 1014.7 hPa | 0 mm | - | - | - |
| 1777430645 | 17.78° C | 94% | 1014.5 hPa | 0 mm | - | - | - |
| 1777430276 | 17.78° C | 94% | 1014.5 hPa | 0 mm | - | - | - |
| 1777429902 | 17.78° C | 94% | 1014.4 hPa | 0 mm | - | - | - |
| 1777429506 | 17.78° C | 94% | 1014.2 hPa | 0 mm | - | - | - |
| 1777429118 | 18.33° C | 94% | 1014.1 hPa | 0 mm | - | - | - |
| 1777428738 | 18.33° C | 94% | 1014.2 hPa | 0 mm | - | - | - |
| 1777428346 | 18.89° C | 94% | 1014.5 hPa | 0 mm | - | - | - |
| 1777427968 | 18.89° C | 94% | 1014.7 hPa | 0 mm | - | - | - |
* Rain latest hour (hover to see other rain measurements)
** Current wind speed in m/s (hover to see current wind gust speed)